| time (UTC) | temp C | wind direction | speed KPH | gust KPH | rain 1hr cm | rain 24hr cm | rain mn cm | humidity % | barometer mb |
| 20260901001030 | 25 | 275 | 25.7 | 24.1 | 0.00 | 0.00 | 0.00 | 55 | |
| 20260901000828 | 25 | 253 | 14.5 | 24.1 | 0.00 | 0.00 | 0.00 | 55 | |
| 20260901000626 | 25 | 246 | 12.9 | 27.4 | 0.00 | 0.00 | 0.00 | 55 | |
| 20260901000225 | 25 | 251 | 20.9 | 24.1 | 0.00 | 0.00 | 0.00 | 54 | |
| 20260901000023 | 25 | 260 | 19.3 | 24.1 | 0.00 | 0.00 | 0.00 | 53 | |
| 20260831235820 | 25 | 250 | 11.3 | 24.1 | 0.00 | 0.00 | 0.00 | 53 | |
| 20260831235618 | 25 | 270 | 16.1 | 27.4 | 0.00 | 0.00 | 0.00 | 53 | |
| 20260831235415 | 25 | 262 | 19.3 | 27.4 | 0.00 | 0.00 | 0.00 | 53 | |
| 20260831235213 | 25 | 254 | 17.7 | 25.7 | 0.00 | 0.00 | 0.00 | 53 | |
| 20260831235013 | 26 | 264 | 14.5 | 25.7 | 0.00 | 0.00 | 0.00 | 53 | |
| 20260831234809 | 25 | 257 | 11.3 | 25.7 | 0.00 | 0.00 | 0.00 | 54 | |
| 20260831234608 | 25 | 268 | 16.1 | 29.0 | 0.00 | 0.00 | 0.00 | 54 | |
| 20260831234405 | 25 | 265 | 12.9 | 29.0 | 0.00 | 0.00 | 0.00 | 54 | |
| 20260831234205 | 25 | 275 | 24.1 | 25.7 | 0.00 | 0.00 | 0.00 | 54 | |
| 20260831234001 | 26 | 264 | 19.3 | 25.7 | 0.00 | 0.00 | 0.00 | 53 | |
| 20260831233759 | 26 | 262 | 17.7 | 25.7 | 0.00 | 0.00 | 0.00 | 54 | |
| 20260831233357 | 26 | 248 | 20.9 | 24.1 | 0.00 | 0.00 | 0.00 | 53 | |
| 20260831233155 | 26 | 255 | 6.4 | 25.7 | 0.00 | 0.00 | 0.00 | 53 | |
| 20260831232951 | 26 | 279 | 11.3 | 25.7 | 0.00 | 0.00 | 0.00 | 54 | |
| 20260831232749 | 26 | 272 | 22.5 | 25.7 | 0.00 | 0.00 | 0.00 | 53 | |
| 20260831232548 | 26 | 248 | 20.9 | 22.5 | 0.00 | 0.00 | 0.00 | 52 | |
| 20260831232348 | 26 | 251 | 19.3 | 22.5 | 0.00 | 0.00 | 0.00 | 51 | |
| 20260831232144 | 26 | 265 | 8.0 | 20.9 | 0.00 | 0.00 | 0.00 | 51 | |
| 20260831231941 | 26 | 258 | 19.3 | 20.9 | 0.00 | 0.00 | 0.00 | 51 | |
| 20260831231741 | 26 | 251 | 12.9 | 24.1 | 0.00 | 0.00 | 0.00 | 51 | |
| 20260831231540 | 26 | 277 | 14.5 | 24.1 | 0.00 | 0.00 | 0.00 | 52 | |
| 20260831231336 | 26 | 267 | 14.5 | 24.1 | 0.00 | 0.00 | 0.00 | 54 | |
| 20260831231135 | 26 | 277 | 6.4 | 22.5 | 0.00 | 0.00 | 0.00 | 54 | |
| 20260831230933 | 26 | 258 | 17.7 | 22.5 | 0.00 | 0.00 | 0.00 | 53 | |
| 20260831230732 | 26 | 260 | 17.7 | 25.7 | 0.00 | 0.00 | 0.00 | 53 | |
| 20260831230530 | 26 | 264 | 12.9 | 25.7 | 0.00 | 0.00 | 0.00 | 54 | |
| 20260831230328 | 26 | 251 | 14.5 | 25.7 | 0.00 | 0.00 | 0.00 | 53 | |
| 20260831230126 | 26 | 277 | 16.1 | 25.7 | 0.00 | 0.00 | 0.00 | 53 | |
| 20260831225720 | 26 | 272 | 14.5 | 27.4 | 0.00 | 0.00 | 0.00 | 54 | |
| 20260831225518 | 26 | 272 | 17.7 | 27.4 | 0.00 | 0.00 | 0.00 | 54 | |
| 20260831225318 | 26 | 254 | 16.1 | 27.4 | 0.00 | 0.00 | 0.00 | 54 | |
| 20260831225114 | 26 | 254 | 17.7 | 22.5 | 0.00 | 0.00 | 0.00 | 54 | |
| 20260831224912 | 26 | 233 | 11.3 | 22.5 | 0.00 | 0.00 | 0.00 | 54 | |
| 20260831224514 | 26 | 260 | 17.7 | 22.5 | 0.00 | 0.00 | 0.00 | 53 | |
| 20260831224308 | 26 | 255 | 12.9 | 22.5 | 0.00 | 0.00 | 0.00 | 51 | |
| 20260831223903 | 26 | 248 | 9.7 | 19.3 | 0.00 | 0.00 | 0.00 | 51 | |
| 20260831223703 | 26 | 239 | 16.1 | 22.5 | 0.00 | 0.00 | 0.00 | 51 | |
| 20260831223501 | 26 | 255 | 12.9 | 22.5 | 0.00 | 0.00 | 0.00 | 51 | |
| 20260831223258 | 26 | 268 | 17.7 | 22.5 | 0.00 | 0.00 | 0.00 | 49 | |
| 20260831223057 | 26 | 272 | 8.0 | 25.7 | 0.00 | 0.00 | 0.00 | 51 | |
| 20260831222853 | 26 | 271 | 9.7 | 25.7 | 0.00 | 0.00 | 0.00 | 51 | |
| 20260831222651 | 26 | 250 | 14.5 | 20.9 | 0.00 | 0.00 | 0.00 | 49 | |
| 20260831222450 | 27 | 247 | 14.5 | 20.9 | 0.00 | 0.00 | 0.00 | 50 | |
| 20260831222249 | 27 | 264 | 12.9 | 20.9 | 0.00 | 0.00 | 0.00 | 51 | |
| 20260831221843 | 26 | 281 | 14.5 | 24.1 | 0.00 | 0.00 | 0.00 | 52 | |
| 20260831221641 | 26 | 254 | 12.9 | 32.2 | 0.00 | 0.00 | 0.00 | 52 | |
| 20260831221441 | 26 | 267 | 14.5 | 32.2 | 0.00 | 0.00 | 0.00 | 53 | |
| 20260831221239 | 26 | 255 | 22.5 | 30.6 | 0.00 | 0.00 | 0.00 | 51 | |
| 20260831221036 | 26 | 275 | 29.0 | 30.6 | 0.00 | 0.00 | 0.00 | 52 | |
| 20260831220835 | 26 | 233 | 19.3 | 30.6 | 0.00 | 0.00 | 0.00 | 53 | |
| 20260831220633 | 26 | 270 | 17.7 | 25.7 | 0.00 | 0.00 | 0.00 | 52 | |
| 20260831220431 | 26 | 271 | 24.1 | 25.7 | 0.00 | 0.00 | 0.00 | 52 | |
| 20260831220227 | 27 | 253 | 11.3 | 22.5 | 0.00 | 0.00 | 0.00 | 53 | |
| 20260831220027 | 26 | 255 | 19.3 | 22.5 | 0.00 | 0.00 | 0.00 | 54 | |
| 20260831215825 | 26 | 279 | 25.7 | 22.5 | 0.00 | 0.00 | 0.00 | 52 | |
| 20260831215622 | 26 | 278 | 14.5 | 25.7 | 0.00 | 0.00 | 0.00 | 53 | |
| 20260831215219 | 26 | 270 | 14.5 | 27.4 | 0.00 | 0.00 | 0.00 | 54 | |
| 20260831215016 | 26 | 265 | 12.9 | 27.4 | 0.00 | 0.00 | 0.00 | 53 | |
| 20260831214815 | 26 | 246 | 19.3 | 27.4 | 0.00 | 0.00 | 0.00 | 52 | |
| 20260831214412 | 26 | 267 | 14.5 | 22.5 | 0.00 | 0.00 | 0.00 | 53 | |
| 20260831214007 | 27 | 265 | 12.9 | 24.1 | 0.00 | 0.00 | 0.00 | 52 | |
| 20260831213804 | 27 | 255 | 17.7 | 24.1 | 0.00 | 0.00 | 0.00 | 52 | |
| 20260831213604 | 27 | 240 | 12.9 | 20.9 | 0.00 | 0.00 | 0.00 | 52 | |
| 20260831213402 | 27 | 291 | 12.9 | 20.9 | 0.00 | 0.00 | 0.00 | 52 | |
| 20260831212956 | 27 | 268 | 17.7 | 22.5 | 0.00 | 0.00 | 0.00 | 53 | |
| 20260831212755 | 26 | 255 | 17.7 | 22.5 | 0.00 | 0.00 | 0.00 | 55 | |
| 20260831212554 | 26 | 251 | 14.5 | 27.4 | 0.00 | 0.00 | 0.00 | 55 | |
| 20260831212352 | 26 | 271 | 8.0 | 27.4 | 0.00 | 0.00 | 0.00 | 55 | |
| 20260831212150 | 26 | 264 | 22.5 | 25.7 | 0.00 | 0.00 | 0.00 | 54 | |
| 20260831211948 | 26 | 236 | 17.7 | 25.7 | 0.00 | 0.00 | 0.00 | 55 | |
| 20260831211746 | 26 | 277 | 20.9 | 24.1 | 0.00 | 0.00 | 0.00 | 55 | |
| 20260831211544 | 26 | 275 | 12.9 | 24.1 | 0.00 | 0.00 | 0.00 | 56 | |
| 20260831211343 | 26 | 264 | 11.3 | 24.1 | 0.00 | 0.00 | 0.00 | 56 | |
| 20260831211140 | 26 | 270 | 16.1 | 30.6 | 0.00 | 0.00 | 0.00 | 55 | |
| 20260831210938 | 26 | 236 | 6.4 | 30.6 | 0.00 | 0.00 | 0.00 | 56 | |
| 20260831210736 | 26 | 268 | 14.5 | 25.7 | 0.00 | 0.00 | 0.00 | 56 | |
| 20260831210535 | 26 | 260 | 20.9 | 25.7 | 0.00 | 0.00 | 0.00 | 55 | |
| 20260831210331 | 26 | 254 | 14.5 | 25.7 | 0.00 | 0.00 | 0.00 | 56 | |
| 20260831210132 | 26 | 291 | 12.9 | 30.6 | 0.00 | 0.00 | 0.00 | 56 | |
| 20260831205929 | 26 | 268 | 19.3 | 30.6 | 0.00 | 0.00 | 0.00 | 55 | |
| 20260831205725 | 26 | 274 | 9.7 | 29.0 | 0.00 | 0.00 | 0.00 | 56 | |
| 20260831205523 | 26 | 279 | 16.1 | 29.0 | 0.00 | 0.00 | 0.00 | 56 | |
| 20260831205121 | 26 | 260 | 27.4 | 25.7 | 0.00 | 0.00 | 0.00 | 57 | |
| 20260831204919 | 26 | 275 | 19.3 | 25.7 | 0.00 | 0.00 | 0.00 | 56 | |
| 20260831204717 | 26 | 272 | 12.9 | 32.2 | 0.00 | 0.00 | 0.00 | 56 | |
| 20260831204515 | 26 | 274 | 11.3 | 32.2 | 0.00 | 0.00 | 0.00 | 56 | |
| 20260831204313 | 26 | 278 | 19.3 | 32.2 | 0.00 | 0.00 | 0.00 | 55 | |
| 20260831204112 | 26 | 270 | 19.3 | 25.7 | 0.00 | 0.00 | 0.00 | 55 | |
| 20260831203909 | 26 | 261 | 20.9 | 25.7 | 0.00 | 0.00 | 0.00 | 54 | |
| 20260831203707 | 27 | 258 | 16.1 | 25.7 | 0.00 | 0.00 | 0.00 | 54 | |
| 20260831203101 | 26 | 271 | 14.5 | 29.0 | 0.00 | 0.00 | 0.00 | 55 | |
| 20260831202859 | 26 | 260 | 20.9 | 29.0 | 0.00 | 0.00 | 0.00 | 55 | |
| 20260831202658 | 26 | 278 | 14.5 | 25.7 | 0.00 | 0.00 | 0.00 | 54 | |
| 20260831202254 | 26 | 282 | 19.3 | 25.7 | 0.00 | 0.00 | 0.00 | 54 | |
| 20260831201848 | 27 | 243 | 11.3 | 22.5 | 0.00 | 0.00 | 0.00 | 54 | |
| 20260831201648 | 26 | 260 | 20.9 | 22.5 | 0.00 | 0.00 | 0.00 | 54 | |
| 20260831201244 | 27 | 257 | 17.7 | 22.5 | 0.00 | 0.00 | 0.00 | 53 | |
| 20260831201042 | 27 | 272 | 11.3 | 22.5 | 0.00 | 0.00 | 0.00 | 52 | |
| 20260831200840 | 27 | 268 | 14.5 | 22.5 | 0.00 | 0.00 | 0.00 | 52 | |
| 20260831200638 | 27 | 255 | 11.3 | 25.7 | 0.00 | 0.00 | 0.00 | 52 | |
| 20260831200436 | 27 | 281 | 9.7 | 25.7 | 0.00 | 0.00 | 0.00 | 52 | |
| 20260831200234 | 27 | 237 | 16.1 | 24.1 | 0.00 | 0.00 | 0.00 | 52 | |
| 20260831200032 | 27 | 275 | 12.9 | 24.1 | 0.00 | 0.00 | 0.00 | 52 | |
| 20260831195830 | 27 | 268 | 14.5 | 24.1 | 0.00 | 0.00 | 0.00 | 52 | |
| 20260831195626 | 26 | 246 | 12.9 | 22.5 | 0.00 | 0.00 | 0.00 | 52 | |
| 20260831195224 | 26 | 237 | 16.1 | 24.1 | 0.00 | 0.00 | 0.00 | 52 | |
| 20260831195022 | 26 | 237 | 14.5 | 24.1 | 0.00 | 0.00 | 0.00 | 53 | |
| 20260831194818 | 26 | 234 | 12.9 | 24.1 | 0.00 | 0.00 | 0.00 | 53 | |
| 20260831194616 | 26 | 278 | 12.9 | 25.7 | 0.00 | 0.00 | 0.00 | 53 | |
| 20260831194416 | 26 | 254 | 14.5 | 25.7 | 0.00 | 0.00 | 0.00 | 52 | |
| 20260831194214 | 26 | 265 | 17.7 | 25.7 | 0.00 | 0.00 | 0.00 | 52 | |
| 20260831194012 | 27 | 260 | 19.3 | 25.7 | 0.00 | 0.00 | 0.00 | 51 | |
| 20260831193810 | 26 | 262 | 8.0 | 25.7 | 0.00 | 0.00 | 0.00 | 52 | |
| 20260831193607 | 26 | 246 | 16.1 | 27.4 | 0.00 | 0.00 | 0.00 | 52 | |
| 20260831193405 | 26 | 261 | 12.9 | 27.4 | 0.00 | 0.00 | 0.00 | 53 | |
| 20260831193205 | 26 | 246 | 17.7 | 27.4 | 0.00 | 0.00 | 0.00 | 53 | |
| 20260831193003 | 26 | 253 | 14.5 | 27.4 | 0.00 | 0.00 | 0.00 | 52 | |
| 20260831192355 | 27 | 275 | 14.5 | 24.1 | 0.00 | 0.00 | 0.00 | 51 | |
| 20260831191549 | 26 | 285 | 11.3 | 27.4 | 0.00 | 0.00 | 0.00 | 51 | |
| 20260831191347 | 26 | 246 | 17.7 | 27.4 | 0.00 | 0.00 | 0.00 | 51 | |
| 20260831191145 | 26 | 265 | 14.5 | 27.4 | 0.00 | 0.00 | 0.00 | 51 | |
| 20260831190943 | 26 | 268 | 19.3 | 27.4 | 0.00 | 0.00 | 0.00 | 51 | |
| 20260831190740 | 26 | 262 | 9.7 | 25.7 | 0.00 | 0.00 | 0.00 | 52 | |
| 20260831190539 | 26 | 248 | 16.1 | 25.7 | 0.00 | 0.00 | 0.00 | 52 | |
| 20260831190135 | 27 | 254 | 17.7 | 25.7 | 0.00 | 0.00 | 0.00 | 50 | |
| 20260831185527 | 27 | 254 | 17.7 | 24.1 | 0.00 | 0.00 | 0.00 | 50 | |
| 20260831185327 | 27 | 251 | 8.0 | 24.1 | 0.00 | 0.00 | 0.00 | 50 | |
| 20260831185125 | 27 | 248 | 14.5 | 24.1 | 0.00 | 0.00 | 0.00 | 50 | |
| 20260831184923 | 26 | 257 | 11.3 | 24.1 | 0.00 | 0.00 | 0.00 | 51 | |
| 20260831184520 | 27 | 262 | 14.5 | 16.1 | 0.00 | 0.00 | 0.00 | 49 | |
| 20260831184317 | 27 | 264 | 12.9 | 16.1 | 0.00 | 0.00 | 0.00 | 49 | |
| 20260831184115 | 27 | 209 | 3.2 | 17.7 | 0.00 | 0.00 | 0.00 | 50 | |
| 20260831183912 | 27 | 265 | 11.3 | 17.7 | 0.00 | 0.00 | 0.00 | 50 | |
| 20260831183712 | 27 | 267 | 11.3 | 19.3 | 0.00 | 0.00 | 0.00 | 51 | |
| 20260831183306 | 26 | 291 | 9.7 | 19.3 | 0.00 | 0.00 | 0.00 | 52 | |
| 20260831183105 | 26 | 298 | 9.7 | 17.7 | 0.00 | 0.00 | 0.00 | 52 | |
| 20260831182902 | 26 | 246 | 12.9 | 17.7 | 0.00 | 0.00 | 0.00 | 52 | |
| 20260831182702 | 26 | 275 | 9.7 | 17.7 | 0.00 | 0.00 | 0.00 | 52 | |
| 20260831182500 | 26 | 248 | 11.3 | 17.7 | 0.00 | 0.00 | 0.00 | 52 | |
| 20260831182258 | 26 | 292 | 6.4 | 17.7 | 0.00 | 0.00 | 0.00 | 52 | |
| 20260831182056 | 26 | 234 | 11.3 | 17.7 | 0.00 | 0.00 | 0.00 | 52 | |
| 20260831181854 | 26 | 268 | 8.0 | 17.7 | 0.00 | 0.00 | 0.00 | 53 | |
| 20260831181248 | 26 | 338 | 3.2 | 16.1 | 0.00 | 0.00 | 0.00 | 53 | |
| 20260831181046 | 26 | 286 | 14.5 | 16.1 | 0.00 | 0.00 | 0.00 | 53 | |
| 20260831180842 | 26 | 281 | 11.3 | 16.1 | 0.00 | 0.00 | 0.00 | 53 | |
| 20260831180642 | 26 | 293 | 9.7 | 14.5 | 0.00 | 0.00 | 0.00 | 52 | |
| 20260831180440 | 26 | 264 | 14.5 | 14.5 | 0.00 | 0.00 | 0.00 | 52 | |
| 20260831180239 | 26 | 261 | 9.7 | 14.5 | 0.00 | 0.00 | 0.00 | 54 | |
| 20260831180035 | 26 | 296 | 8.0 | 14.5 | 0.00 | 0.00 | 0.00 | 53 | |
| 20260831175833 | 26 | 284 | 8.0 | 14.5 | 0.00 | 0.00 | 0.00 | 53 | |
| 20260831175632 | 26 | 293 | 8.0 | 17.7 | 0.00 | 0.00 | 0.00 | 54 | |
| 20260831175431 | 26 | 272 | 8.0 | 17.7 | 0.00 | 0.00 | 0.00 | 54 | |
| 20260831175229 | 26 | 277 | 14.5 | 16.1 | 0.00 | 0.00 | 0.00 | 54 | |
| 20260831174825 | 26 | 267 | 6.4 | 16.1 | 0.00 | 0.00 | 0.00 | 55 | |
| 20260831174621 | 26 | 284 | 6.4 | 16.1 | 0.00 | 0.00 | 0.00 | 56 | |
| 20260831174421 | 26 | 284 | 8.0 | 16.1 | 0.00 | 0.00 | 0.00 | 55 | |
| 20260831174219 | 26 | 261 | 8.0 | 16.1 | 0.00 | 0.00 | 0.00 | 56 | |
| 20260831174015 | 26 | 279 | 8.0 | 16.1 | 0.00 | 0.00 | 0.00 | 56 | |
| 20260831173813 | 25 | 281 | 8.0 | 16.1 | 0.00 | 0.00 | 0.00 | 57 | |
| 20260831173613 | 25 | 265 | 11.3 | 14.5 | 0.00 | 0.00 | 0.00 | 57 | |
| 20260831173411 | 25 | 286 | 8.0 | 14.5 | 0.00 | 0.00 | 0.00 | 57 | |
| 20260831173208 | 25 | 267 | 8.0 | 14.5 | 0.00 | 0.00 | 0.00 | 57 | |
| 20260831173006 | 25 | 255 | 9.7 | 14.5 | 0.00 | 0.00 | 0.00 | 58 | |
| 20260831172805 | 25 | 261 | 11.3 | 14.5 | 0.00 | 0.00 | 0.00 | 59 | |
| 20260831172603 | 25 | 277 | 11.3 | 14.5 | 0.00 | 0.00 | 0.00 | 59 | |
| 20260831172157 | 25 | 299 | 3.2 | 14.5 | 0.00 | 0.00 | 0.00 | 60 | |
| 20260831171957 | 25 | 262 | 11.3 | 14.5 | 0.00 | 0.00 | 0.00 | 59 | |
| 20260831171554 | 25 | 272 | 4.8 | 12.9 | 0.00 | 0.00 | 0.00 | 59 | |
| 20260831171350 | 25 | 255 | 9.7 | 12.9 | 0.00 | 0.00 | 0.00 | 59 | |
| 20260831171150 | 25 | 289 | 1.6 | 11.3 | 0.00 | 0.00 | 0.00 | 60 | |
| 20260831170947 | 25 | 241 | 0.0 | 11.3 | 0.00 | 0.00 | 0.00 | 61 | |
| 20260831170746 | 24 | 258 | 4.8 | 11.3 | 0.00 | 0.00 | 0.00 | 61 | |
| 20260831170542 | 24 | 257 | 1.6 | 11.3 | 0.00 | 0.00 | 0.00 | 61 | |
| 20260831170342 | 24 | 250 | 3.2 | 11.3 | 0.00 | 0.00 | 0.00 | 62 | |
| 20260831170138 | 24 | 254 | 0.0 | 12.9 | 0.00 | 0.00 | 0.00 | 62 | |
| 20260831165936 | 23 | 243 | 8.0 | 12.9 | 0.00 | 0.00 | 0.00 | 62 | |
| 20260831165734 | 23 | 279 | 9.7 | 11.3 | 0.00 | 0.00 | 0.00 | 62 | |
| 20260831165532 | 23 | 265 | 1.6 | 11.3 | 0.00 | 0.00 | 0.00 | 63 | |
| 20260831165330 | 23 | 277 | 3.2 | 11.3 | 0.00 | 0.00 | 0.00 | 63 | |
| 20260831165128 | 23 | 275 | 3.2 | 11.3 | 0.00 | 0.00 | 0.00 | 64 | |
| 20260831164724 | 23 | 284 | 4.8 | 11.3 | 0.00 | 0.00 | 0.00 | 65 | |
| 20260831164522 | 23 | 265 | 8.0 | 11.3 | 0.00 | 0.00 | 0.00 | 66 | |
| 20260831164320 | 22 | 246 | 0.0 | 11.3 | 0.00 | 0.00 | 0.00 | 67 | |
| 20260831164120 | 22 | 285 | 4.8 | 12.9 | 0.00 | 0.00 | 0.00 | 67 | |
| 20260831163916 | 22 | 291 | 8.0 | 12.9 | 0.00 | 0.00 | 0.00 | 67 | |
| 20260831163716 | 22 | 292 | 6.4 | 12.9 | 0.00 | 0.00 | 0.00 | 68 | |
| 20260831163512 | 22 | 285 | 4.8 | 12.9 | 0.00 | 0.00 | 0.00 | 68 | |
| 20260831163310 | 22 | 257 | 8.0 | 12.9 | 0.00 | 0.00 | 0.00 | 69 | |
| 20260831162907 | 22 | 279 | 8.0 | 12.9 | 0.00 | 0.00 | 0.00 | 69 | |
| 20260831162705 | 21 | 268 | 11.3 | 11.3 | 0.00 | 0.00 | 0.00 | 70 | |
| 20260831162301 | 21 | 277 | 11.3 | 11.3 | 0.00 | 0.00 | 0.00 | 70 | |
| 20260831162059 | 21 | 293 | 3.2 | 12.9 | 0.00 | 0.00 | 0.00 | 71 | |
| 20260831161857 | 21 | 293 | 4.8 | 12.9 | 0.00 | 0.00 | 0.00 | 71 | |
| 20260831161655 | 21 | 302 | 4.8 | 11.3 | 0.00 | 0.00 | 0.00 | 72 | |
| 20260831161453 | 21 | 257 | 6.4 | 11.3 | 0.00 | 0.00 | 0.00 | 72 | |
| 20260831161251 | 21 | 275 | 8.0 | 11.3 | 0.00 | 0.00 | 0.00 | 73 | |
| 20260831160849 | 21 | 288 | 11.3 | 11.3 | 0.00 | 0.00 | 0.00 | 74 | |
| 20260831160645 | 21 | 289 | 8.0 | 12.9 | 0.00 | 0.00 | 0.00 | 74 | |
| 20260831160443 | 21 | 274 | 6.4 | 12.9 | 0.00 | 0.00 | 0.00 | 75 | |
| 20260831160241 | 20 | 268 | 11.3 | 14.5 | 0.00 | 0.00 | 0.00 | 75 | |
| 20260831160039 | 20 | 279 | 11.3 | 14.5 | 0.00 | 0.00 | 0.00 | 76 | |
| 20260831155635 | 20 | 299 | 8.0 | 11.3 | 0.00 | 0.00 | 0.00 | 77 | |
| 20260831155231 | 20 | 293 | 8.0 | 11.3 | 0.00 | 0.00 | 0.00 | 77 | |
| 20260831155029 | 20 | 281 | 4.8 | 11.3 | 0.00 | 0.00 | 0.00 | 77 | |
| 20260831154828 | 20 | 285 | 6.4 | 11.3 | 0.00 | 0.00 | 0.00 | 78 | |
| 20260831154626 | 20 | 265 | 6.4 | 11.3 | 0.00 | 0.00 | 0.00 | 79 | |
| 20260831154222 | 20 | 277 | 8.0 | 11.3 | 0.00 | 0.00 | 0.00 | 79 | |
| 20260831154020 | 20 | 265 | 9.7 | 11.3 | 0.00 | 0.00 | 0.00 | 80 | |
| 20260831153616 | 19 | 291 | 8.0 | 8.0 | 0.00 | 0.00 | 0.00 | 80 | |
| 20260831153414 | 19 | 293 | 4.8 | 8.0 | 0.00 | 0.00 | 0.00 | 80 | |
| 20260831153212 | 19 | 270 | 3.2 | 6.4 | 0.00 | 0.00 | 0.00 | 80 | |
| 20260831153010 | 19 | 281 | 6.4 | 6.4 | 0.00 | 0.00 | 0.00 | 81 | |
| 20260831152808 | 18 | 286 | 6.4 | 6.4 | 0.00 | 0.00 | 0.00 | 81 | |
| 20260831152607 | 18 | 285 | 1.6 | 4.8 | 0.00 | 0.00 | 0.00 | 82 | |
| 20260831152405 | 18 | 282 | 3.2 | 4.8 | 0.00 | 0.00 | 0.00 | 83 | |
| 20260831152203 | 18 | 285 | 3.2 | 0.0 | 0.00 | 0.00 | 0.00 | 83 | |
| 20260831152001 | 18 | 285 | 3.2 | 0.0 | 0.00 | 0.00 | 0.00 | 83 | |
| 20260831151759 | 18 | 261 | 0.0 | 0.0 | 0.00 | 0.00 | 0.00 | 82 | |
| 20260831151557 | 18 | 261 | 0.0 | 0.0 | 0.00 | 0.00 | 0.00 | 82 | |
| 20260831151355 | 18 | 261 | 0.0 | 0.0 | 0.00 | 0.00 | 0.00 | 82 | |
| 20260831150953 | 18 | 261 | 0.0 | 0.0 | 0.00 | 0.00 | 0.00 | 82 | |
| 20260831150749 | 18 | 261 | 0.0 | 0.0 | 0.00 | 0.00 | 0.00 | 82 | |
| 20260831150548 | 18 | 261 | 0.0 | 0.0 | 0.00 | 0.00 | 0.00 | 83 | |
| 20260831150346 | 18 | 261 | 0.0 | 0.0 | 0.00 | 0.00 | 0.00 | 84 | |
| 20260831150144 | 18 | 261 | 0.0 | 0.0 | 0.00 | 0.00 | 0.00 | 84 | |
| 20260831145942 | 18 | 261 | 0.0 | 0.0 | 0.00 | 0.00 | 0.00 | 85 | |
| 20260831145740 | 18 | 261 | 0.0 | 0.0 | 0.00 | 0.00 | 0.00 | 85 | |
| 20260831145538 | 18 | 261 | 0.0 | 0.0 | 0.00 | 0.00 | 0.00 | 86 | |
| 20260831145134 | 17 | 261 | 0.0 | 0.0 | 0.00 | 0.00 | 0.00 | 86 | |
| 20260831144932 | 17 | 261 | 0.0 | 0.0 | 0.00 | 0.00 | 0.00 | 87 | |
| 20260831144730 | 17 | 261 | 0.0 | 0.0 | 0.00 | 0.00 | 0.00 | 88 | |
| 20260831144529 | 17 | 261 | 0.0 | 0.0 | 0.00 | 0.00 | 0.00 | 88 | |
| 20260831144328 | 17 | 261 | 0.0 | 0.0 | 0.00 | 0.00 | 0.00 | 89 | |
| 20260831143923 | 17 | 261 | 0.0 | 0.0 | 0.00 | 0.00 | 0.00 | 91 | |
| 20260831143723 | 17 | 261 | 0.0 | 0.0 | 0.00 | 0.00 | 0.00 | 91 | |
| 20260831143519 | 16 | 261 | 0.0 | 0.0 | 0.00 | 0.00 | 0.00 | 92 | |
| 20260831143317 | 16 | 261 | 0.0 | 0.0 | 0.00 | 0.00 | 0.00 | 92 | |
| 20260831143117 | 16 | 261 | 0.0 | 0.0 | 0.00 | 0.00 | 0.00 | 92 | |
| 20260831142713 | 16 | 261 | 0.0 | 0.0 | 0.00 | 0.00 | 0.00 | 93 | |
| 20260831142307 | 16 | 261 | 0.0 | 0.0 | 0.00 | 0.00 | 0.00 | 93 | |
| 20260831142106 | 16 | 261 | 0.0 | 0.0 | 0.00 | 0.00 | 0.00 | 93 | |
| 20260831141906 | 16 | 261 | 0.0 | 0.0 | 0.00 | 0.00 | 0.00 | 93 | |
| 20260831141500 | 16 | 261 | 0.0 | 0.0 | 0.00 | 0.00 | 0.00 | 93 | |
| 20260831141300 | 16 | 261 | 0.0 | 0.0 | 0.00 | 0.00 | 0.00 | 93 | |
| 20260831140856 | 16 | 261 | 0.0 | 0.0 | 0.00 | 0.00 | 0.00 | 93 | |
| 20260831140652 | 15 | 261 | 0.0 | 0.0 | 0.00 | 0.00 | 0.00 | 93 | |
| 20260831140452 | 15 | 261 | 0.0 | 0.0 | 0.00 | 0.00 | 0.00 | 93 | |
| 20260831140250 | 15 | 261 | 0.0 | 0.0 | 0.00 | 0.00 | 0.00 | 93 | |
| 20260831140047 | 15 | 261 | 0.0 | 0.0 | 0.00 | 0.00 | 0.00 | 93 | |
| 20260831135845 | 15 | 261 | 0.0 | 0.0 | 0.00 | 0.00 | 0.00 | 93 | |
| 20260831135643 | 15 | 261 | 0.0 | 0.0 | 0.00 | 0.00 | 0.00 | 93 | |
| 20260831135441 | 15 | 261 | 0.0 | 0.0 | 0.00 | 0.00 | 0.00 | 93 | |
| 20260831135239 | 15 | 261 | 0.0 | 0.0 | 0.00 | 0.00 | 0.00 | 93 | |
| 20260831135039 | 15 | 261 | 0.0 | 0.0 | 0.00 | 0.00 | 0.00 | 93 | |
| 20260831134837 | 15 | 261 | 0.0 | 0.0 | 0.00 | 0.00 | 0.00 | 93 | |
| 20260831134635 | 15 | 261 | 0.0 | 0.0 | 0.00 | 0.00 | 0.00 | 93 | |
| 20260831134433 | 15 | 261 | 0.0 | 0.0 | 0.00 | 0.00 | 0.00 | 93 | |
| 20260831134231 | 15 | 261 | 0.0 | 0.0 | 0.00 | 0.00 | 0.00 | 93 | |
| 20260831134028 | 15 | 261 | 0.0 | 0.0 | 0.00 | 0.00 | 0.00 | 93 | |
| 20260831133826 | 15 | 261 | 0.0 | 0.0 | 0.00 | 0.00 | 0.00 | 93 | |
| 20260831133624 | 15 | 261 | 0.0 | 0.0 | 0.00 | 0.00 | 0.00 | 93 | |
| 20260831133423 | 15 | 261 | 0.0 | 0.0 | 0.00 | 0.00 | 0.00 | 93 | |
| 20260831133222 | 15 | 261 | 0.0 | 0.0 | 0.00 | 0.00 | 0.00 | 92 | |
| 20260831132816 | 15 | 261 | 0.0 | 0.0 | 0.00 | 0.00 | 0.00 | 92 | |
| 20260831132614 | 15 | 261 | 0.0 | 0.0 | 0.00 | 0.00 | 0.00 | 92 | |
| 20260831132412 | 15 | 261 | 0.0 | 0.0 | 0.00 | 0.00 | 0.00 | 92 | |
| 20260831132210 | 15 | 261 | 0.0 | 0.0 | 0.00 | 0.00 | 0.00 | 92 | |
| 20260831131807 | 15 | 261 | 0.0 | 0.0 | 0.00 | 0.00 | 0.00 | 92 | |
| 20260831131605 | 16 | 261 | 0.0 | 0.0 | 0.00 | 0.00 | 0.00 | 92 | |
| 20260831131201 | 16 | 261 | 0.0 | 0.0 | 0.00 | 0.00 | 0.00 | 92 | |
| 20260831130959 | 16 | 261 | 0.0 | 0.0 | 0.00 | 0.00 | 0.00 | 92 | |
| 20260831130757 | 16 | 261 | 0.0 | 0.0 | 0.00 | 0.00 | 0.00 | 92 | |
| 20260831130555 | 16 | 261 | 0.0 | 0.0 | 0.00 | 0.00 | 0.00 | 92 | |
| 20260831130353 | 16 | 261 | 0.0 | 0.0 | 0.00 | 0.00 | 0.00 | 92 | |
| 20260831130151 | 16 | 261 | 0.0 | 0.0 | 0.00 | 0.00 | 0.00 | 92 | |
| 20260831125949 | 16 | 261 | 0.0 | 0.0 | 0.00 | 0.00 | 0.00 | 92 | |
| 20260831125747 | 16 | 261 | 0.0 | 0.0 | 0.00 | 0.00 | 0.00 | 92 | |
| 20260831125546 | 16 | 261 | 0.0 | 0.0 | 0.00 | 0.00 | 0.00 | 92 | |
| 20260831125142 | 16 | 261 | 0.0 | 0.0 | 0.00 | 0.00 | 0.00 | 92 | |
| 20260831124940 | 16 | 261 | 0.0 | 0.0 | 0.00 | 0.00 | 0.00 | 92 | |
| 20260831124738 | 16 | 261 | 0.0 | 0.0 | 0.00 | 0.00 | 0.00 | 92 | |
| 20260831124334 | 16 | 261 | 0.0 | 0.0 | 0.00 | 0.00 | 0.00 | 92 | |
| 20260831123930 | 16 | 261 | 0.0 | 0.0 | 0.00 | 0.00 | 0.00 | 92 | |
| 20260831123730 | 16 | 261 | 0.0 | 0.0 | 0.00 | 0.00 | 0.00 | 92 | |
| 20260831123527 | 16 | 261 | 0.0 | 0.0 | 0.00 | 0.00 | 0.00 | 92 | |
| 20260831123325 | 16 | 261 | 0.0 | 0.0 | 0.00 | 0.00 | 0.00 | 92 | |
| 20260831123123 | 16 | 261 | 0.0 | 0.0 | 0.00 | 0.00 | 0.00 | 92 | |
| 20260831122921 | 16 | 261 | 0.0 | 0.0 | 0.00 | 0.00 | 0.00 | 91 | |
| 20260831122719 | 16 | 261 | 0.0 | 0.0 | 0.00 | 0.00 | 0.00 | 91 | |
| 20260831122517 | 16 | 261 | 0.0 | 0.0 | 0.00 | 0.00 | 0.00 | 91 | |
| 20260831122317 | 16 | 261 | 0.0 | 0.0 | 0.00 | 0.00 | 0.00 | 91 | |
| 20260831122113 | 16 | 261 | 0.0 | 0.0 | 0.00 | 0.00 | 0.00 | 91 | |
| 20260831121709 | 16 | 261 | 0.0 | 0.0 | 0.00 | 0.00 | 0.00 | 91 | |
| 20260831121508 | 16 | 261 | 0.0 | 0.0 | 0.00 | 0.00 | 0.00 | 91 | |
| 20260831121306 | 16 | 261 | 0.0 | 0.0 | 0.00 | 0.00 | 0.00 | 91 | |
| 20260831121104 | 16 | 261 | 0.0 | 0.0 | 0.00 | 0.00 | 0.00 | 91 | |
| 20260831120701 | 16 | 261 | 0.0 | 0.0 | 0.00 | 0.00 | 0.00 | 91 | |
| 20260831120458 | 16 | 261 | 0.0 | 0.0 | 0.00 | 0.00 | 0.00 | 91 | |
| 20260831120256 | 16 | 261 | 0.0 | 0.0 | 0.00 | 0.00 | 0.00 | 91 | |
| 20260831120056 | 16 | 261 | 0.0 | 0.0 | 0.00 | 0.00 | 0.00 | 91 | |
| 20260831115852 | 16 | 261 | 0.0 | 0.0 | 0.00 | 0.00 | 0.00 | 91 | |
| 20260831115650 | 16 | 261 | 0.0 | 0.0 | 0.00 | 0.00 | 0.00 | 90 | |
| 20260831115448 | 16 | 261 | 0.0 | 0.0 | 0.00 | 0.00 | 0.00 | 90 | |
| 20260831115248 | 16 | 261 | 0.0 | 0.0 | 0.00 | 0.00 | 0.00 | 90 | |
| 20260831115045 | 16 | 261 | 0.0 | 0.0 | 0.00 | 0.00 | 0.00 | 90 | |
| 20260831114843 | 16 | 261 | 0.0 | 0.0 | 0.00 | 0.00 | 0.00 | 90 | |
| 20260831114641 | 16 | 261 | 0.0 | 0.0 | 0.00 | 0.00 | 0.00 | 90 | |
| 20260831114439 | 16 | 261 | 0.0 | 0.0 | 0.00 | 0.00 | 0.00 | 90 | |
| 20260831114237 | 16 | 261 | 0.0 | 0.0 | 0.00 | 0.00 | 0.00 | 90 | |
| 20260831114037 | 16 | 261 | 0.0 | 0.0 | 0.00 | 0.00 | 0.00 | 90 | |
| 20260831113833 | 16 | 261 | 0.0 | 0.0 | 0.00 | 0.00 | 0.00 | 90 | |
| 20260831113634 | 16 | 261 | 0.0 | 0.0 | 0.00 | 0.00 | 0.00 | 90 | |
| 20260831113429 | 16 | 261 | 0.0 | 0.0 | 0.00 | 0.00 | 0.00 | 90 | |
| 20260831113228 | 16 | 261 | 0.0 | 0.0 | 0.00 | 0.00 | 0.00 | 90 | |
| 20260831113026 | 16 | 261 | 0.0 | 0.0 | 0.00 | 0.00 | 0.00 | 90 | |
| 20260831112824 | 16 | 261 | 0.0 | 0.0 | 0.00 | 0.00 | 0.00 | 90 | |
| 20260831112622 | 16 | 261 | 0.0 | 0.0 | 0.00 | 0.00 | 0.00 | 90 | |
| 20260831112220 | 16 | 261 | 0.0 | 0.0 | 0.00 | 0.00 | 0.00 | 90 | |
| 20260831111816 | 16 | 261 | 0.0 | 0.0 | 0.00 | 0.00 | 0.00 | 90 | |
| 20260831111614 | 16 | 261 | 0.0 | 0.0 | 0.00 | 0.00 | 0.00 | 90 | |
| 20260831111410 | 16 | 261 | 0.0 | 0.0 | 0.00 | 0.00 | 0.00 | 90 | |
| 20260831111208 | 16 | 261 | 0.0 | 0.0 | 0.00 | 0.00 | 0.00 | 90 | |
| 20260831111008 | 16 | 261 | 0.0 | 0.0 | 0.00 | 0.00 | 0.00 | 90 | |
| 20260831110806 | 16 | 261 | 0.0 | 0.0 | 0.00 | 0.00 | 0.00 | 89 | |
| 20260831110603 | 16 | 261 | 0.0 | 0.0 | 0.00 | 0.00 | 0.00 | 89 | |
| 20260831110401 | 16 | 261 | 0.0 | 0.0 | 0.00 | 0.00 | 0.00 | 89 | |
| 20260831110159 | 16 | 261 | 0.0 | 0.0 | 0.00 | 0.00 | 0.00 | 89 | |
| 20260831105957 | 16 | 261 | 0.0 | 0.0 | 0.00 | 0.00 | 0.00 | 89 | |
| 20260831105755 | 16 | 261 | 0.0 | 0.0 | 0.00 | 0.00 | 0.00 | 89 | |
| 20260831105352 | 16 | 261 | 0.0 | 0.0 | 0.00 | 0.00 | 0.00 | 89 | |
| 20260831105149 | 16 | 261 | 0.0 | 0.0 | 0.00 | 0.00 | 0.00 | 89 | |
| 20260831104949 | 16 | 261 | 0.0 | 0.0 | 0.00 | 0.00 | 0.00 | 89 | |
| 20260831104747 | 17 | 261 | 0.0 | 0.0 | 0.00 | 0.00 | 0.00 | 89 | |
| 20260831104544 | 17 | 261 | 0.0 | 0.0 | 0.00 | 0.00 | 0.00 | 89 | |
| 20260831104342 | 16 | 261 | 0.0 | 0.0 | 0.00 | 0.00 | 0.00 | 89 | |
| 20260831104140 | 16 | 261 | 0.0 | 6.4 | 0.00 | 0.00 | 0.00 | 89 | |
| 20260831103938 | 16 | 261 | 0.0 | 6.4 | 0.00 | 0.00 | 0.00 | 89 | |
| 20260831103736 | 17 | 261 | 0.0 | 4.8 | 0.00 | 0.00 | 0.00 | 89 | |
| 20260831103534 | 17 | 261 | 0.0 | 4.8 | 0.00 | 0.00 | 0.00 | 89 | |
| 20260831103334 | 16 | 302 | 6.4 | 4.8 | 0.00 | 0.00 | 0.00 | 89 | |
| 20260831102928 | 16 | 288 | 0.0 | 0.0 | 0.00 | 0.00 | 0.00 | 88 | |
| 20260831102726 | 16 | 288 | 0.0 | 4.8 | 0.00 | 0.00 | 0.00 | 88 | |
| 20260831102325 | 16 | 288 | 0.0 | 4.8 | 0.00 | 0.00 | 0.00 | 88 | |
| 20260831102122 | 16 | 293 | 3.2 | 0.0 | 0.00 | 0.00 | 0.00 | 88 | |
| 20260831101919 | 16 | 285 | 0.0 | 0.0 | 0.00 | 0.00 | 0.00 | 88 | |
| 20260831101717 | 16 | 285 | 0.0 | 0.0 | 0.00 | 0.00 | 0.00 | 88 | |
| 20260831101515 | 17 | 285 | 0.0 | 0.0 | 0.00 | 0.00 | 0.00 | 88 | |
| 20260831101315 | 17 | 285 | 0.0 | 0.0 | 0.00 | 0.00 | 0.00 | 88 | |
| 20260831101113 | 17 | 285 | 0.0 | 0.0 | 0.00 | 0.00 | 0.00 | 88 | |
| 20260831100911 | 17 | 285 | 0.0 | 0.0 | 0.00 | 0.00 | 0.00 | 88 | |
| 20260831100709 | 17 | 285 | 0.0 | 0.0 | 0.00 | 0.00 | 0.00 | 88 | |
| 20260831100506 | 17 | 285 | 0.0 | 0.0 | 0.00 | 0.00 | 0.00 | 88 | |
| 20260831100304 | 17 | 285 | 0.0 | 0.0 | 0.00 | 0.00 | 0.00 | 88 | |
| 20260831095900 | 17 | 285 | 0.0 | 0.0 | 0.00 | 0.00 | 0.00 | 88 | |
| 20260831095659 | 17 | 285 | 0.0 | 0.0 | 0.00 | 0.00 | 0.00 | 88 | |
| 20260831095458 | 17 | 285 | 0.0 | 0.0 | 0.00 | 0.00 | 0.00 | 88 | |
| 20260831095256 | 17 | 285 | 0.0 | 0.0 | 0.00 | 0.00 | 0.00 | 88 | |
| 20260831095052 | 17 | 285 | 0.0 | 0.0 | 0.00 | 0.00 | 0.00 | 88 | |
| 20260831094852 | 17 | 285 | 0.0 | 0.0 | 0.00 | 0.00 | 0.00 | 88 | |
| 20260831094648 | 17 | 285 | 0.0 | 0.0 | 0.00 | 0.00 | 0.00 | 88 | |
| 20260831094447 | 17 | 285 | 0.0 | 0.0 | 0.00 | 0.00 | 0.00 | 88 | |
| 20260831094245 | 17 | 285 | 0.0 | 0.0 | 0.00 | 0.00 | 0.00 | 88 | |
| 20260831094043 | 17 | 285 | 0.0 | 0.0 | 0.00 | 0.00 | 0.00 | 88 | |
| 20260831093841 | 17 | 285 | 0.0 | 0.0 | 0.00 | 0.00 | 0.00 | 88 | |
| 20260831093639 | 17 | 285 | 0.0 | 0.0 | 0.00 | 0.00 | 0.00 | 87 | |
| 20260831093437 | 17 | 285 | 0.0 | 0.0 | 0.00 | 0.00 | 0.00 | 87 | |
| 20260831093237 | 17 | 285 | 0.0 | 0.0 | 0.00 | 0.00 | 0.00 | 87 | |
| 20260831093035 | 17 | 285 | 0.0 | 0.0 | 0.00 | 0.00 | 0.00 | 87 | |
| 20260831092833 | 17 | 285 | 0.0 | 0.0 | 0.00 | 0.00 | 0.00 | 87 | |
| 20260831092631 | 17 | 285 | 0.0 | 0.0 | 0.00 | 0.00 | 0.00 | 87 | |
| 20260831092427 | 17 | 285 | 0.0 | 0.0 | 0.00 | 0.00 | 0.00 | 87 | |
| 20260831092226 | 17 | 285 | 0.0 | 0.0 | 0.00 | 0.00 | 0.00 | 87 | |
| 20260831092024 | 17 | 285 | 0.0 | 0.0 | 0.00 | 0.00 | 0.00 | 87 | |
| 20260831091823 | 17 | 285 | 0.0 | 0.0 | 0.00 | 0.00 | 0.00 | 87 | |
| 20260831091620 | 17 | 285 | 0.0 | 0.0 | 0.00 | 0.00 | 0.00 | 87 | |
| 20260831091419 | 17 | 285 | 0.0 | 0.0 | 0.00 | 0.00 | 0.00 | 87 | |
| 20260831091014 | 17 | 285 | 0.0 | 0.0 | 0.00 | 0.00 | 0.00 | 87 | |
| 20260831090812 | 17 | 285 | 0.0 | 0.0 | 0.00 | 0.00 | 0.00 | 87 | |
| 20260831090610 | 17 | 285 | 0.0 | 0.0 | 0.00 | 0.00 | 0.00 | 87 | |
| 20260831090408 | 17 | 285 | 0.0 | 0.0 | 0.00 | 0.00 | 0.00 | 87 | |
| 20260831090206 | 17 | 285 | 0.0 | 0.0 | 0.00 | 0.00 | 0.00 | 87 | |
| 20260831085803 | 17 | 285 | 0.0 | 0.0 | 0.00 | 0.00 | 0.00 | 86 | |
| 20260831085601 | 17 | 285 | 0.0 | 0.0 | 0.00 | 0.00 | 0.00 | 86 | |
| 20260831085401 | 17 | 285 | 0.0 | 0.0 | 0.00 | 0.00 | 0.00 | 86 | |
| 20260831085157 | 17 | 285 | 0.0 | 0.0 | 0.00 | 0.00 | 0.00 | 86 | |
| 20260831084955 | 17 | 285 | 0.0 | 0.0 | 0.00 | 0.00 | 0.00 | 86 | |
| 20260831084753 | 17 | 285 | 0.0 | 0.0 | 0.00 | 0.00 | 0.00 | 86 | |
| 20260831084551 | 17 | 285 | 0.0 | 0.0 | 0.00 | 0.00 | 0.00 | 86 | |
| 20260831084349 | 17 | 285 | 0.0 | 0.0 | 0.00 | 0.00 | 0.00 | 86 | |
| 20260831084147 | 17 | 285 | 0.0 | 0.0 | 0.00 | 0.00 | 0.00 | 86 | |
| 20260831083744 | 17 | 285 | 0.0 | 0.0 | 0.00 | 0.00 | 0.00 | 86 | |
| 20260831083542 | 17 | 285 | 0.0 | 0.0 | 0.00 | 0.00 | 0.00 | 86 | |
| 20260831083340 | 17 | 285 | 0.0 | 0.0 | 0.00 | 0.00 | 0.00 | 86 | |
| 20260831083138 | 17 | 285 | 0.0 | 1.6 | 0.00 | 0.00 | 0.00 | 86 | |
| 20260831082936 | 17 | 285 | 0.0 | 1.6 | 0.00 | 0.00 | 0.00 | 86 | |
| 20260831082734 | 18 | 285 | 0.0 | 3.2 | 0.00 | 0.00 | 0.00 | 86 | |
| 20260831082532 | 18 | 285 | 0.0 | 3.2 | 0.00 | 0.00 | 0.00 | 86 | |
| 20260831082330 | 18 | 288 | 0.0 | 3.2 | 0.00 | 0.00 | 0.00 | 86 | |
| 20260831082128 | 18 | 292 | 1.6 | 0.0 | 0.00 | 0.00 | 0.00 | 86 | |
| 20260831081926 | 18 | 264 | 0.0 | 0.0 | 0.00 | 0.00 | 0.00 | 85 | |
| 20260831081725 | 18 | 264 | 0.0 | 0.0 | 0.00 | 0.00 | 0.00 | 86 | |
| 20260831081523 | 18 | 264 | 0.0 | 0.0 | 0.00 | 0.00 | 0.00 | 86 | |
| 20260831081321 | 18 | 264 | 0.0 | 0.0 | 0.00 | 0.00 | 0.00 | 86 | |
| 20260831081119 | 18 | 264 | 0.0 | 4.8 | 0.00 | 0.00 | 0.00 | 86 | |
| 20260831080917 | 18 | 264 | 0.0 | 4.8 | 0.00 | 0.00 | 0.00 | 86 | |
| 20260831080715 | 18 | 264 | 0.0 | 8.0 | 0.00 | 0.00 | 0.00 | 86 | |
| 20260831080513 | 18 | 264 | 0.0 | 8.0 | 0.00 | 0.00 | 0.00 | 86 | |
| 20260831080311 | 18 | 298 | 3.2 | 8.0 | 0.00 | 0.00 | 0.00 | 86 | |
| 20260831080109 | 18 | 286 | 6.4 | 9.7 | 0.00 | 0.00 | 0.00 | 86 | |
| 20260831075907 | 18 | 291 | 4.8 | 9.7 | 0.00 | 0.00 | 0.00 | 86 | |
| 20260831075705 | 18 | 279 | 4.8 | 9.7 | 0.00 | 0.00 | 0.00 | 86 | |
| 20260831075504 | 18 | 291 | 6.4 | 9.7 | 0.00 | 0.00 | 0.00 | 86 | |
| 20260831075302 | 18 | 310 | 6.4 | 9.7 | 0.00 | 0.00 | 0.00 | 86 | |
| 20260831074656 | 18 | 281 | 8.0 | 9.7 | 0.00 | 0.00 | 0.00 | 85 | |
| 20260831074454 | 18 | 334 | 3.2 | 9.7 | 0.00 | 0.00 | 0.00 | 84 | |
| 20260831074252 | 18 | 291 | 8.0 | 9.7 | 0.00 | 0.00 | 0.00 | 84 | |
| 20260831074050 | 18 | 298 | 6.4 | 11.3 | 0.00 | 0.00 | 0.00 | 84 | |
| 20260831073848 | 18 | 278 | 6.4 | 11.3 | 0.00 | 0.00 | 0.00 | 83 | |
| 20260831073647 | 18 | 303 | 4.8 | 11.3 | 0.00 | 0.00 | 0.00 | 82 | |
| 20260831073445 | 18 | 310 | 4.8 | 11.3 | 0.00 | 0.00 | 0.00 | 82 | |
| 20260831073243 | 18 | 279 | 9.7 | 9.7 | 0.00 | 0.00 | 0.00 | 82 | |
| 20260831073041 | 18 | 309 | 6.4 | 9.7 | 0.00 | 0.00 | 0.00 | 81 | |
| 20260831072839 | 18 | 300 | 6.4 | 9.7 | 0.00 | 0.00 | 0.00 | 80 | |
| 20260831072637 | 18 | 302 | 8.0 | 8.0 | 0.00 | 0.00 | 0.00 | 80 | |
| 20260831072435 | 18 | 288 | 8.0 | 8.0 | 0.00 | 0.00 | 0.00 | 80 | |
| 20260831072233 | 18 | 296 | 6.4 | 8.0 | 0.00 | 0.00 | 0.00 | 80 | |
| 20260831072031 | 18 | 288 | 6.4 | 8.0 | 0.00 | 0.00 | 0.00 | 80 | |
| 20260831071830 | 18 | 286 | 6.4 | 8.0 | 0.00 | 0.00 | 0.00 | 80 | |
| 20260831071426 | 18 | 295 | 6.4 | 8.0 | 0.00 | 0.00 | 0.00 | 79 | |
| 20260831071224 | 18 | 295 | 6.4 | 0.0 | 0.00 | 0.00 | 0.00 | 79 | |
| 20260831071022 | 18 | 281 | 6.4 | 0.0 | 0.00 | 0.00 | 0.00 | 78 | |
| 20260831070820 | 19 | 279 | 0.0 | 0.0 | 0.00 | 0.00 | 0.00 | 79 | |
| 20260831070618 | 19 | 279 | 0.0 | 3.2 | 0.00 | 0.00 | 0.00 | 79 | |
| 20260831070214 | 19 | 279 | 0.0 | 3.2 | 0.00 | 0.00 | 0.00 | 79 | |
| 20260831070012 | 19 | 282 | 1.6 | 3.2 | 0.00 | 0.00 | 0.00 | 80 | |
| 20260831065811 | 18 | 274 | 3.2 | 3.2 | 0.00 | 0.00 | 0.00 | 80 | |
| 20260831065609 | 18 | 281 | 3.2 | 4.8 | 0.00 | 0.00 | 0.00 | 79 | |
| 20260831065407 | 18 | 278 | 3.2 | 4.8 | 0.00 | 0.00 | 0.00 | 79 | |
| 20260831065205 | 18 | 284 | 3.2 | 4.8 | 0.00 | 0.00 | 0.00 | 79 | |
| 20260831065003 | 18 | 295 | 4.8 | 4.8 | 0.00 | 0.00 | 0.00 | 79 | |
| 20260831064801 | 18 | 289 | 4.8 | 4.8 | 0.00 | 0.00 | 0.00 | 79 | |
| 20260831064559 | 18 | 282 | 0.0 | 0.0 | 0.00 | 0.00 | 0.00 | 80 | |
| 20260831064357 | 18 | 282 | 0.0 | 0.0 | 0.00 | 0.00 | 0.00 | 80 | |
| 20260831064155 | 18 | 282 | 0.0 | 0.0 | 0.00 | 0.00 | 0.00 | 80 | |
| 20260831063953 | 18 | 282 | 0.0 | 0.0 | 0.00 | 0.00 | 0.00 | 80 | |
| 20260831063751 | 18 | 282 | 0.0 | 0.0 | 0.00 | 0.00 | 0.00 | 80 | |
| 20260831063348 | 18 | 282 | 0.0 | 0.0 | 0.00 | 0.00 | 0.00 | 80 | |
| 20260831062944 | 18 | 282 | 0.0 | 0.0 | 0.00 | 0.00 | 0.00 | 80 | |
| 20260831062742 | 18 | 282 | 0.0 | 0.0 | 0.00 | 0.00 | 0.00 | 80 | |
| 20260831062540 | 18 | 282 | 0.0 | 0.0 | 0.00 | 0.00 | 0.00 | 80 | |
| 20260831062338 | 18 | 282 | 0.0 | 0.0 | 0.00 | 0.00 | 0.00 | 79 | |
| 20260831062136 | 18 | 282 | 0.0 | 0.0 | 0.00 | 0.00 | 0.00 | 79 | |
| 20260831061934 | 18 | 282 | 0.0 | 0.0 | 0.00 | 0.00 | 0.00 | 79 | |
| 20260831061733 | 18 | 282 | 0.0 | 0.0 | 0.00 | 0.00 | 0.00 | 79 | |
| 20260831061530 | 18 | 282 | 0.0 | 0.0 | 0.00 | 0.00 | 0.00 | 79 | |
| 20260831061129 | 18 | 282 | 0.0 | 0.0 | 0.00 | 0.00 | 0.00 | 79 | |
| 20260831060925 | 18 | 282 | 0.0 | 0.0 | 0.00 | 0.00 | 0.00 | 78 | |
| 20260831060723 | 18 | 282 | 0.0 | 0.0 | 0.00 | 0.00 | 0.00 | 78 | |
| 20260831060521 | 19 | 282 | 0.0 | 0.0 | 0.00 | 0.00 | 0.00 | 78 | |
| 20260831060319 | 19 | 282 | 0.0 | 0.0 | 0.00 | 0.00 | 0.00 | 78 | |
| 20260831060117 | 19 | 282 | 0.0 | 0.0 | 0.00 | 0.00 | 0.00 | 78 | |
| 20260831055915 | 19 | 282 | 0.0 | 0.0 | 0.00 | 0.00 | 0.00 | 78 | |
| 20260831055713 | 19 | 282 | 0.0 | 0.0 | 0.00 | 0.00 | 0.00 | 78 | |
| 20260831055309 | 19 | 282 | 0.0 | 0.0 | 0.00 | 0.00 | 0.00 | 78 | |
| 20260831055108 | 19 | 282 | 0.0 | 0.0 | 0.00 | 0.00 | 0.00 | 78 | |
| 20260831054906 | 19 | 282 | 0.0 | 0.0 | 0.00 | 0.00 | 0.00 | 78 | |
| 20260831054704 | 19 | 282 | 0.0 | 0.0 | 0.00 | 0.00 | 0.00 | 78 | |
| 20260831054502 | 19 | 282 | 0.0 | 0.0 | 0.00 | 0.00 | 0.00 | 78 | |
| 20260831054300 | 19 | 282 | 0.0 | 0.0 | 0.00 | 0.00 | 0.00 | 78 | |
| 20260831054058 | 19 | 282 | 0.0 | 0.0 | 0.00 | 0.00 | 0.00 | 78 | |
| 20260831053856 | 19 | 282 | 0.0 | 0.0 | 0.00 | 0.00 | 0.00 | 78 | |
| 20260831053654 | 19 | 282 | 0.0 | 0.0 | 0.00 | 0.00 | 0.00 | 78 | |
| 20260831053452 | 19 | 282 | 0.0 | 0.0 | 0.00 | 0.00 | 0.00 | 78 | |
| 20260831053251 | 19 | 282 | 0.0 | 0.0 | 0.00 | 0.00 | 0.00 | 77 | |
| 20260831053049 | 19 | 282 | 0.0 | 0.0 | 0.00 | 0.00 | 0.00 | 76 | |
| 20260831052847 | 20 | 282 | 0.0 | 0.0 | 0.00 | 0.00 | 0.00 | 76 | |
| 20260831052645 | 20 | 282 | 0.0 | 0.0 | 0.00 | 0.00 | 0.00 | 76 | |
| 20260831052443 | 20 | 282 | 0.0 | 0.0 | 0.00 | 0.00 | 0.00 | 76 | |
| 20260831052241 | 20 | 282 | 0.0 | 0.0 | 0.00 | 0.00 | 0.00 | 76 | |
| 20260831052039 | 20 | 282 | 0.0 | 0.0 | 0.00 | 0.00 | 0.00 | 76 | |
| 20260831051837 | 20 | 282 | 0.0 | 0.0 | 0.00 | 0.00 | 0.00 | 76 | |
| 20260831051635 | 20 | 282 | 0.0 | 0.0 | 0.00 | 0.00 | 0.00 | 76 | |
| 20260831051433 | 20 | 282 | 0.0 | 0.0 | 0.00 | 0.00 | 0.00 | 76 | |
| 20260831051231 | 20 | 282 | 0.0 | 0.0 | 0.00 | 0.00 | 0.00 | 75 | |
| 20260831051030 | 20 | 282 | 0.0 | 0.0 | 0.00 | 0.00 | 0.00 | 75 | |
| 20260831050828 | 20 | 282 | 0.0 | 0.0 | 0.00 | 0.00 | 0.00 | 75 | |
| 20260831050626 | 20 | 282 | 0.0 | 0.0 | 0.00 | 0.00 | 0.00 | 75 | |
| 20260831050424 | 20 | 282 | 0.0 | 0.0 | 0.00 | 0.00 | 0.00 | 75 | |
| 20260831050222 | 20 | 282 | 0.0 | 0.0 | 0.00 | 0.00 | 0.00 | 75 | |
| 20260831050020 | 20 | 282 | 0.0 | 0.0 | 0.00 | 0.00 | 0.00 | 75 | |
| 20260831045818 | 20 | 282 | 0.0 | 0.0 | 0.00 | 0.00 | 0.00 | 75 | |
| 20260831045616 | 20 | 282 | 0.0 | 0.0 | 0.00 | 0.00 | 0.00 | 75 | |
| 20260831045414 | 20 | 282 | 0.0 | 0.0 | 0.00 | 0.00 | 0.00 | 75 | |
| 20260831045212 | 20 | 282 | 0.0 | 3.2 | 0.00 | 0.00 | 0.00 | 75 | |
| 20260831045010 | 20 | 282 | 0.0 | 3.2 | 0.00 | 0.00 | 0.00 | 74 | |
| 20260831044809 | 20 | 282 | 0.0 | 3.2 | 0.00 | 0.00 | 0.00 | 75 | |
| 20260831044607 | 20 | 282 | 0.0 | 8.0 | 0.00 | 0.00 | 0.00 | 75 | |
| 20260831044203 | 20 | 295 | 4.8 | 8.0 | 0.00 | 0.00 | 0.00 | 75 | |
| 20260831044001 | 20 | 299 | 3.2 | 8.0 | 0.00 | 0.00 | 0.00 | 75 | |
| 20260831043759 | 20 | 281 | 6.4 | 8.0 | 0.00 | 0.00 | 0.00 | 75 | |
| 20260831043557 | 20 | 288 | 4.8 | 8.0 | 0.00 | 0.00 | 0.00 | 75 | |
| 20260831043355 | 20 | 288 | 8.0 | 8.0 | 0.00 | 0.00 | 0.00 | 75 | |
| 20260831043153 | 20 | 285 | 6.4 | 6.4 | 0.00 | 0.00 | 0.00 | 74 | |
| 20260831042951 | 20 | 277 | 4.8 | 6.4 | 0.00 | 0.00 | 0.00 | 74 | |
| 20260831042749 | 20 | 285 | 6.4 | 6.4 | 0.00 | 0.00 | 0.00 | 74 | |
| 20260831042547 | 20 | 286 | 3.2 | 8.0 | 0.00 | 0.00 | 0.00 | 74 | |
| 20260831042345 | 20 | 292 | 4.8 | 8.0 | 0.00 | 0.00 | 0.00 | 74 | |
| 20260831042143 | 20 | 274 | 6.4 | 6.4 | 0.00 | 0.00 | 0.00 | 73 | |
| 20260831041941 | 21 | 286 | 0.0 | 6.4 | 0.00 | 0.00 | 0.00 | 73 | |
| 20260831041739 | 21 | 282 | 1.6 | 8.0 | 0.00 | 0.00 | 0.00 | 73 | |
| 20260831041538 | 21 | 293 | 3.2 | 8.0 | 0.00 | 0.00 | 0.00 | 73 | |
| 20260831041336 | 21 | 279 | 4.8 | 8.0 | 0.00 | 0.00 | 0.00 | 73 | |
| 20260831041134 | 21 | 284 | 6.4 | 8.0 | 0.00 | 0.00 | 0.00 | 73 | |
| 20260831040932 | 21 | 289 | 4.8 | 8.0 | 0.00 | 0.00 | 0.00 | 72 | |
| 20260831040730 | 21 | 274 | 8.0 | 6.4 | 0.00 | 0.00 | 0.00 | 72 | |
| 20260831040528 | 21 | 275 | 4.8 | 6.4 | 0.00 | 0.00 | 0.00 | 72 | |
| 20260831040326 | 21 | 289 | 6.4 | 6.4 | 0.00 | 0.00 | 0.00 | 71 | |
| 20260831040124 | 21 | 288 | 3.2 | 11.3 | 0.00 | 0.00 | 0.00 | 70 | |
| 20260831035922 | 21 | 281 | 3.2 | 11.3 | 0.00 | 0.00 | 0.00 | 70 | |
| 20260831035720 | 21 | 286 | 4.8 | 11.3 | 0.00 | 0.00 | 0.00 | 70 | |
| 20260831035518 | 21 | 285 | 8.0 | 11.3 | 0.00 | 0.00 | 0.00 | 70 | |
| 20260831035316 | 21 | 299 | 4.8 | 11.3 | 0.00 | 0.00 | 0.00 | 70 | |
| 20260831035114 | 21 | 274 | 8.0 | 8.0 | 0.00 | 0.00 | 0.00 | 69 | |
| 20260831034912 | 21 | 279 | 8.0 | 8.0 | 0.00 | 0.00 | 0.00 | 69 | |
| 20260831034508 | 21 | 300 | 3.2 | 6.4 | 0.00 | 0.00 | 0.00 | 68 | |
| 20260831034306 | 22 | 284 | 8.0 | 6.4 | 0.00 | 0.00 | 0.00 | 68 | |
| 20260831034104 | 22 | 291 | 6.4 | 6.4 | 0.00 | 0.00 | 0.00 | 67 | |
| 20260831033902 | 22 | 299 | 4.8 | 6.4 | 0.00 | 0.00 | 0.00 | 67 | |
| 20260831033700 | 22 | 296 | 4.8 | 3.2 | 0.00 | 0.00 | 0.00 | 67 | |
| 20260831033458 | 21 | 302 | 4.8 | 3.2 | 0.00 | 0.00 | 0.00 | 67 | |
| 20260831033256 | 22 | 289 | 1.6 | 3.2 | 0.00 | 0.00 | 0.00 | 67 | |
| 20260831033054 | 22 | 222 | 0.0 | 0.0 | 0.00 | 0.00 | 0.00 | 67 | |
| 20260831032650 | 22 | 222 | 0.0 | 0.0 | 0.00 | 0.00 | 0.00 | 67 | |
| 20260831032448 | 22 | 222 | 0.0 | 0.0 | 0.00 | 0.00 | 0.00 | 66 | |
| 20260831032246 | 22 | 222 | 0.0 | 0.0 | 0.00 | 0.00 | 0.00 | 67 | |
| 20260831032044 | 22 | 222 | 0.0 | 1.6 | 0.00 | 0.00 | 0.00 | 66 | |
| 20260831031842 | 22 | 222 | 0.0 | 1.6 | 0.00 | 0.00 | 0.00 | 66 | |
| 20260831031640 | 22 | 222 | 0.0 | 1.6 | 0.00 | 0.00 | 0.00 | 66 | |
| 20260831031438 | 22 | 222 | 0.0 | 1.6 | 0.00 | 0.00 | 0.00 | 66 | |
| 20260831031236 | 22 | 209 | 1.6 | 0.0 | 0.00 | 0.00 | 0.00 | 65 | |
| 20260831031035 | 22 | 209 | 0.0 | 0.0 | 0.00 | 0.00 | 0.00 | 64 | |
| 20260831030833 | 22 | 209 | 0.0 | 0.0 | 0.00 | 0.00 | 0.00 | 64 | |
| 20260831030631 | 22 | 209 | 0.0 | 0.0 | 0.00 | 0.00 | 0.00 | 64 | |
| 20260831030429 | 22 | 209 | 0.0 | 0.0 | 0.00 | 0.00 | 0.00 | 63 | |
| 20260831030227 | 22 | 209 | 0.0 | 0.0 | 0.00 | 0.00 | 0.00 | 63 | |
| 20260831030025 | 22 | 209 | 0.0 | 0.0 | 0.00 | 0.00 | 0.00 | 63 | |
| 20260831025823 | 22 | 209 | 0.0 | 0.0 | 0.00 | 0.00 | 0.00 | 62 | |
| 20260831025621 | 22 | 209 | 0.0 | 3.2 | 0.00 | 0.00 | 0.00 | 62 | |
| 20260831025419 | 22 | 209 | 0.0 | 3.2 | 0.00 | 0.00 | 0.00 | 62 | |
| 20260831025217 | 23 | 209 | 0.0 | 0.0 | 0.00 | 0.00 | 0.00 | 62 | |
| 20260831025015 | 23 | 209 | 0.0 | 0.0 | 0.00 | 0.00 | 0.00 | 61 | |
| 20260831024813 | 23 | 216 | 0.0 | 0.0 | 0.00 | 0.00 | 0.00 | 61 | |
| 20260831024611 | 23 | 216 | 0.0 | 0.0 | 0.00 | 0.00 | 0.00 | 60 | |
| 20260831024411 | 23 | 216 | 0.0 | 0.0 | 0.00 | 0.00 | 0.00 | 60 | |
| 20260831024207 | 23 | 216 | 0.0 | 0.0 | 0.00 | 0.00 | 0.00 | 60 | |
| 20260831024005 | 23 | 216 | 0.0 | 0.0 | 0.00 | 0.00 | 0.00 | 59 | |
| 20260831023803 | 23 | 216 | 0.0 | 0.0 | 0.00 | 0.00 | 0.00 | 59 | |
| 20260831023601 | 23 | 216 | 0.0 | 0.0 | 0.00 | 0.00 | 0.00 | 59 | |
| 20260831023359 | 23 | 216 | 0.0 | 0.0 | 0.00 | 0.00 | 0.00 | 59 | |
| 20260831023157 | 23 | 216 | 0.0 | 0.0 | 0.00 | 0.00 | 0.00 | 59 | |
| 20260831022955 | 23 | 216 | 0.0 | 0.0 | 0.00 | 0.00 | 0.00 | 59 | |
| 20260831022753 | 23 | 216 | 0.0 | 0.0 | 0.00 | 0.00 | 0.00 | 58 | |
| 20260831022551 | 23 | 216 | 0.0 | 0.0 | 0.00 | 0.00 | 0.00 | 58 | |
| 20260831022349 | 24 | 216 | 0.0 | 0.0 | 0.00 | 0.00 | 0.00 | 58 | |
| 20260831022147 | 24 | 216 | 0.0 | 4.8 | 0.00 | 0.00 | 0.00 | 58 | |
| 20260831021945 | 24 | 216 | 0.0 | 4.8 | 0.00 | 0.00 | 0.00 | 58 | |
| 20260831021743 | 24 | 216 | 0.0 | 4.8 | 0.00 | 0.00 | 0.00 | 57 | |
| 20260831021541 | 24 | 216 | 0.0 | 4.8 | 0.00 | 0.00 | 0.00 | 57 | |
| 20260831021339 | 24 | 248 | 0.0 | 4.8 | 0.00 | 0.00 | 0.00 | 57 | |
| 20260831021138 | 24 | 198 | 0.0 | 6.4 | 0.00 | 0.00 | 0.00 | 57 | |
| 20260831020936 | 25 | 257 | 0.0 | 6.4 | 0.00 | 0.00 | 0.00 | 57 | |
| 20260831020734 | 25 | 257 | 0.0 | 8.0 | 0.00 | 0.00 | 0.00 | 56 | |
| 20260831020532 | 25 | 237 | 0.0 | 8.0 | 0.00 | 0.00 | 0.00 | 56 | |
| 20260831020330 | 25 | 285 | 4.8 | 8.0 | 0.00 | 0.00 | 0.00 | 56 | |
| 20260831020128 | 25 | 270 | 0.0 | 8.0 | 0.00 | 0.00 | 0.00 | 56 | |
| 20260831015724 | 25 | 291 | 6.4 | 9.7 | 0.00 | 0.00 | 0.00 | 56 | |
| 20260831015522 | 25 | 258 | 1.6 | 9.7 | 0.00 | 0.00 | 0.00 | 56 | |
| 20260831015118 | 25 | 288 | 6.4 | 9.7 | 0.00 | 0.00 | 0.00 | 55 | |
| 20260831014916 | 25 | 215 | 1.6 | 9.7 | 0.00 | 0.00 | 0.00 | 55 | |
| 20260831014714 | 25 | 268 | 9.7 | 6.4 | 0.00 | 0.00 | 0.00 | 55 | |
| 20260831014512 | 25 | 270 | 3.2 | 6.4 | 0.00 | 0.00 | 0.00 | 55 | |
| 20260831014310 | 25 | 264 | 0.0 | 6.4 | 0.00 | 0.00 | 0.00 | 55 | |
| 20260831014110 | 25 | 289 | 1.6 | 12.9 | 0.00 | 0.00 | 0.00 | 55 | |
| 20260831013906 | 25 | 254 | 1.6 | 12.9 | 0.00 | 0.00 | 0.00 | 55 | |
| 20260831013704 | 25 | 272 | 4.8 | 12.9 | 0.00 | 0.00 | 0.00 | 55 | |
| 20260831013504 | 25 | 257 | 4.8 | 12.9 | 0.00 | 0.00 | 0.00 | 54 | |
| 20260831013300 | 25 | 241 | 9.7 | 12.9 | 0.00 | 0.00 | 0.00 | 54 | |
| 20260831013058 | 26 | 270 | 6.4 | 16.1 | 0.00 | 0.00 | 0.00 | 54 | |
| 20260831012856 | 26 | 255 | 6.4 | 16.1 | 0.00 | 0.00 | 0.00 | 54 | |
| 20260831012654 | 26 | 275 | 9.7 | 12.9 | 0.00 | 0.00 | 0.00 | 54 | |
| 20260831012452 | 26 | 303 | 11.3 | 12.9 | 0.00 | 0.00 | 0.00 | 54 | |
| 20260831012250 | 26 | 272 | 9.7 | 12.9 | 0.00 | 0.00 | 0.00 | 54 | |
| 20260831012048 | 26 | 288 | 8.0 | 12.9 | 0.00 | 0.00 | 0.00 | 54 | |
| 20260831011644 | 26 | 270 | 6.4 | 8.0 | 0.00 | 0.00 | 0.00 | 53 | |
| 20260831011443 | 26 | 275 | 9.7 | 8.0 | 0.00 | 0.00 | 0.00 | 53 | |
| 20260831011038 | 26 | 265 | 0.0 | 17.7 | 0.00 | 0.00 | 0.00 | 54 | |
| 20260831010637 | 26 | 274 | 9.7 | 19.3 | 0.00 | 0.00 | 0.00 | 55 | |
| 20260831010231 | 26 | 261 | 17.7 | 19.3 | 0.00 | 0.00 | 0.00 | 54 | |
| 20260831005827 | 26 | 262 | 9.7 | 19.3 | 0.00 | 0.00 | 0.00 | 55 | |
| 20260831005626 | 26 | 258 | 6.4 | 20.9 | 0.00 | 0.00 | 0.00 | 55 | |
| 20260831005423 | 26 | 270 | 16.1 | 20.9 | 0.00 | 0.00 | 0.00 | 55 | |
| 20260831005221 | 26 | 262 | 14.5 | 22.5 | 0.00 | 0.00 | 0.00 | 54 | |
| 20260831005019 | 26 | 248 | 12.9 | 22.5 | 0.00 | 0.00 | 0.00 | 54 | |
| 20260831004817 | 26 | 264 | 16.1 | 22.5 | 0.00 | 0.00 | 0.00 | 53 | |
| 20260831004615 | 26 | 253 | 8.0 | 24.1 | 0.00 | 0.00 | 0.00 | 54 | |
| 20260831004413 | 26 | 278 | 16.1 | 24.1 | 0.00 | 0.00 | 0.00 | 54 | |
| 20260831004009 | 26 | 271 | 17.7 | 25.7 | 0.00 | 0.00 | 0.00 | 54 | |
| 20260831003807 | 26 | 277 | 12.9 | 25.7 | 0.00 | 0.00 | 0.00 | 53 | |
| 20260831003605 | 26 | 271 | 17.7 | 24.1 | 0.00 | 0.00 | 0.00 | 53 | |
| 20260831003403 | 26 | 258 | 14.5 | 24.1 | 0.00 | 0.00 | 0.00 | 53 | |
| 20260831003000 | 26 | 248 | 14.5 | 17.7 | 0.00 | 0.00 | 0.00 | 53 | |
| 20260831002758 | 27 | 270 | 20.9 | 17.7 | 0.00 | 0.00 | 0.00 | 53 | |
| 20260831002556 | 27 | 255 | 12.9 | 24.1 | 0.00 | 0.00 | 0.00 | 52 | |
| 20260831002354 | 27 | 251 | 9.7 | 24.1 | 0.00 | 0.00 | 0.00 | 52 | |
| 20260831002153 | 27 | 277 | 14.5 | 20.9 | 0.00 | 0.00 | 0.00 | 53 | |
| 20260831001950 | 27 | 264 | 14.5 | 20.9 | 0.00 | 0.00 | 0.00 | 53 | |
| 20260831001748 | 27 | 264 | 12.9 | 20.9 | 0.00 | 0.00 | 0.00 | 52 | |
| 20260831001546 | 27 | 246 | 12.9 | 20.9 | 0.00 | 0.00 | 0.00 | 53 | |
| 20260831001344 | 27 | 279 | 12.9 | 20.9 | 0.00 | 0.00 | 0.00 | 53 | |
| 20260831001142 | 27 | 257 | 19.3 | 22.5 | 0.00 | 0.00 | 0.00 | 53 |